Mount Pleasant, TN

10:22 PM CST on January 19, 2017 (GMT -0600)
Maury County

Weather History for KMRC - August, 2014

Change the Weather History Date:

Saturday, August 30, 2014

  Actual Average (KBNA) Record (KBNA)
Temperature  
Mean Temperature 78 °F -  
Max Temperature 87 °F 87 °F 100 °F (1951)
Min Temperature 69 °F 66 °F 53 °F (1891)
Cooling Degree Days 13    
Growing Degree Days 28 (Base 50)    
Moisture  
Dew Point 72 °F    
Average Humidity 91    
Maximum Humidity 100    
Minimum Humidity 66    
Precipitation  
Precipitation 0.00 in - - ()
Sea Level Pressure  
Sea Level Pressure 30.06 in    
Wind  
Wind Speed 1 mph (ENE)    
Max Wind Speed 13 mph    
Max Gust Speed -    
Visibility 9 miles    
Events      
Averages and records for this station are not official NWS values.
T = Trace of Precipitation, MM = Missing Value Source: NWS Daily Summary

Daily Weather History Graph

Daily Weather History Graph

Search for Another Location

Airport or City:

Trip Planner

Search our weather history database for the weather conditions in past years. The results will help you decide how hot, cold, wet, or windy it might be!

Date:

Astronomy

Aug. 30, 2014 Rise Set
Actual Time 6:19 AM CDT 7:18 PM CDT
Civil Twilight 5:53 AM CDT 7:44 PM CDT
Nautical Twilight 5:22 AM CDT 8:15 PM CDT
Astronomical Twilight 4:50 AM CDT 8:47 PM CDT
Moon 10:55 AM CDT (8/30) 10:04 PM CDT (8/30)
Length of Visible Light 13h 51m
Length of Day
12h 59m
Waxing Crescent, 23% of the Moon is Illuminated
Aug 30
Waxing Crescent
Sep 2
First Quarter
Sep 8
Full
Sep 15
Last Quarter
Sep 24
New

Hourly Weather History & Observations

Time (CDT) Temp. Heat Index Dew Point Humidity Pressure Visibility Wind Dir Wind Speed Gust Speed Precip Events Conditions
12:35 AM 71.6 °F - 69.8 °F 94% 30.06 in - Calm Calm - N/A   Unknown
12:55 AM 69.8 °F - 69.8 °F 100% 30.06 in - Calm Calm - N/A   Mostly Cloudy
1:15 AM 71.6 °F - 69.8 °F 94% 30.05 in - Calm Calm - N/A   Unknown
1:35 AM 71.6 °F - 69.8 °F 94% 30.05 in - Calm Calm - N/A   Unknown
1:55 AM 69.8 °F - 69.8 °F 100% 30.04 in - Calm Calm - N/A   Unknown
2:15 AM 69.8 °F - 69.8 °F 100% 30.04 in - Calm Calm - N/A   Unknown
2:35 AM 69.8 °F - 69.8 °F 100% 30.04 in - Calm Calm - N/A   Unknown
2:55 AM 69.8 °F - 69.8 °F 100% 30.04 in - Calm Calm - N/A   Unknown
3:15 AM 69.8 °F - 69.8 °F 100% 30.04 in - Calm Calm - N/A   Unknown
3:35 AM 69.8 °F - 69.8 °F 100% 30.04 in - Calm Calm - N/A   Unknown
3:55 AM 69.8 °F - 69.8 °F 100% 30.04 in - Calm Calm - N/A   Unknown
4:15 AM 69.8 °F - 69.8 °F 100% 30.05 in - Calm Calm - N/A   Unknown
4:35 AM 69.8 °F - 69.8 °F 100% 30.05 in - Calm Calm - N/A   Unknown
4:55 AM 69.8 °F - 69.8 °F 100% 30.05 in - Calm Calm - N/A   Unknown
5:15 AM 69.8 °F - 69.8 °F 100% 30.05 in - Calm Calm - N/A   Unknown
5:35 AM 69.8 °F - 69.8 °F 100% 30.05 in - Calm Calm - N/A   Unknown
5:55 AM 69.8 °F - 69.8 °F 100% 30.05 in - Calm Calm - N/A   Unknown
6:15 AM 69.8 °F - 69.8 °F 100% 30.05 in - Calm Calm - N/A   Unknown
6:35 AM 69.8 °F - 69.8 °F 100% 30.05 in - Calm Calm - N/A   Unknown
6:55 AM 69.8 °F - 69.8 °F 100% 30.06 in - Calm Calm - N/A   Unknown
7:15 AM 71.6 °F - 69.8 °F 94% 30.06 in - Calm Calm - N/A   Unknown
7:35 AM 73.4 °F - 71.6 °F 94% 30.07 in - Calm Calm - N/A   Unknown
7:55 AM 73.4 °F - 71.6 °F 94% 30.07 in - Calm Calm - N/A   Unknown
8:15 AM 73.4 °F - 69.8 °F 88% 30.07 in - Calm Calm - N/A   Unknown
8:35 AM 75.2 °F - 71.6 °F 89% 30.08 in - West 3.5 mph - N/A   Unknown
9:35 AM 78.8 °F - 71.6 °F 78% 30.08 in - SW 5.8 mph - N/A   Unknown
9:55 AM 78.8 °F - 71.6 °F 78% 30.09 in - West 3.5 mph - N/A   Unknown
10:15 AM 78.8 °F - 69.8 °F 74% 30.09 in - Calm Calm - N/A   Unknown
10:35 AM 80.6 °F 84.6 °F 71.6 °F 74% 30.08 in - Calm Calm - N/A   Unknown
10:55 AM 80.6 °F 84.6 °F 71.6 °F 74% 30.09 in - Calm Calm - N/A   Unknown
11:15 AM 80.6 °F 84.6 °F 71.6 °F 74% 30.09 in 8.0 mi SSW 3.5 mph - N/A   Clear
11:35 AM 80.6 °F 84.6 °F 71.6 °F 74% 30.10 in - WSW 4.6 mph - N/A   Unknown
11:55 AM 80.6 °F 84.6 °F 71.6 °F 74% 30.10 in - Calm Calm - N/A   Unknown
12:15 PM 82.4 °F 87.2 °F 71.6 °F 70% 30.09 in - Calm Calm - N/A   Unknown
12:35 PM 82.4 °F 88.2 °F 73.4 °F 74% 30.08 in - Calm Calm - N/A   Unknown
12:55 PM 82.4 °F 88.2 °F 73.4 °F 74% 30.08 in - Calm Calm - N/A   Unknown
1:55 PM 84.2 °F 90.9 °F 73.4 °F 70% 30.06 in - Calm Calm - N/A   Unknown
2:15 PM 84.2 °F 90.9 °F 73.4 °F 70% 30.05 in - Calm Calm - N/A   Unknown
3:15 PM 86.0 °F 93.4 °F 73.4 °F 66% 30.02 in 9.0 mi Variable 3.5 mph - N/A   Clear
3:35 PM 87.8 °F 97.6 °F 75.2 °F 66% 30.01 in - Calm Calm - N/A   Unknown
3:55 PM 86.0 °F 93.4 °F 73.4 °F 66% 30.01 in 10.0 mi Variable 4.6 mph - N/A   Mostly Cloudy
4:15 PM 84.2 °F 90.9 °F 73.4 °F 70% 30.00 in 10.0 mi North 3.5 mph - N/A   Mostly Cloudy
4:35 PM 80.6 °F 86.2 °F 75.2 °F 84% 30.00 in - NNW 8.1 mph - N/A   Unknown
4:55 PM 78.8 °F - 77.0 °F 94% 30.02 in - NNW 3.5 mph - N/A   Unknown
5:15 PM 78.8 °F - 78.8 °F 100% 30.02 in - Calm Calm - N/A   Unknown
5:35 PM 78.8 °F - 78.8 °F 100% 30.03 in - ENE 4.6 mph - N/A   Unknown
5:55 PM 78.8 °F - 78.8 °F 100% 30.03 in - NE 6.9 mph - N/A   Unknown
6:15 PM 73.4 °F - 73.4 °F 100% 30.03 in - ENE 12.7 mph - N/A   Overcast
6:35 PM 73.4 °F - 73.4 °F 100% 30.04 in - East 10.4 mph - N/A   Unknown
6:55 PM 73.4 °F - 73.4 °F 100% 30.06 in - Calm Calm - N/A   Unknown
7:15 PM 73.4 °F - 73.4 °F 100% 30.06 in - East 8.1 mph - N/A   Overcast
7:35 PM 73.4 °F - 73.4 °F 100% 30.07 in - East 5.8 mph - N/A   Unknown
7:55 PM 73.4 °F - 73.4 °F 100% 30.08 in - Calm Calm - N/A   Unknown
8:35 PM 71.6 °F - 71.6 °F 100% 30.08 in - Calm Calm - N/A   Unknown
8:55 PM 71.6 °F - 71.6 °F 100% 30.09 in - Calm Calm - N/A   Unknown
9:15 PM 71.6 °F - 71.6 °F 100% 30.09 in - SE 3.5 mph - N/A   Unknown
9:35 PM 71.6 °F - 71.6 °F 100% 30.08 in - Calm Calm - N/A   Unknown
10:35 PM 71.6 °F - 71.6 °F 100% 30.07 in - Calm Calm - N/A   Unknown
10:55 PM 71.6 °F - 71.6 °F 100% 30.06 in - Calm Calm - N/A   Unknown
11:15 PM 71.6 °F - 71.6 °F 100% 30.06 in - Calm Calm - N/A   Unknown
11:35 PM 71.6 °F - 71.6 °F 100% 30.06 in - Calm Calm - N/A   Unknown
11:55 PM 71.6 °F - 71.6 °F 100% 30.06 in - SSE 5.8 mph - N/A   Unknown